DW3611 Weather Reports


Display with metric or nautical units.
time (UTC)temp
F
wind
direction
speed
MPH
gust
MPH
rain 1hr
in
rain 24hr
in
rain mn
in
humidity
%
barometer
mb
20260905065016 78 360 0.0 2.0 0.00 0.00 0.00 91 1013.7
20260905064534 78 360 0.0 2.0 0.00 0.00 0.00 91 1013.8
20260905064018 78 360 0.0 3.0 0.00 0.00 0.00 90 1013.8
20260905063515 78 360 0.0 4.0 0.00 0.00 0.00 90 1013.9
20260905063034 78 360 1.0 4.0 0.00 0.00 0.00 90 1013.8
20260905062507 78 360 0.0 2.0 0.00 0.00 0.00 90 1013.9
20260905062015 78 360 0.0 2.0 0.00 0.00 0.00 90 1013.9
20260905061525 78 360 0.0 2.0 0.00 0.00 0.00 90 1013.9
20260905061021 78 155 0.0 2.0 0.00 0.00 0.00 90 1013.9
20260905060517 78 185 0.0 3.0 0.00 0.00 0.00 90 1013.8
20260905060030 78 360 0.0 3.0 0.00 0.00 0.00 90 1013.7
20260905055519 78 360 0.0 3.0 0.00 0.00 0.00 90 1013.6
20260905055016 78 360 0.0 2.0 0.00 0.00 0.00 90 1013.8
20260905054530 79 360 0.0 1.0 0.00 0.00 0.00 90 1013.8
20260905054004 79 360 0.0 1.0 0.00 0.00 0.00 90 1013.9
20260905053506 79 360 0.0 1.0 0.00 0.00 0.00 90 1013.9
20260905053018 79 360 0.0 0.0 0.00 0.00 0.00 89 1013.9
20260905052506 79 161 0.0 1.0 0.00 0.00 0.00 89 1013.9
20260905052008 79 154 0.0 1.0 0.00 0.00 0.00 89 1013.9
20260905051540 79 156 0.0 1.0 0.00 0.00 0.00 89 1013.9
20260905051015 79 360 0.0 0.0 0.00 0.00 0.00 89 1013.9
20260905050512 79 360 0.0 1.0 0.00 0.00 0.00 89 1014.0
20260905050036 79 360 0.0 1.0 0.00 0.00 0.00 89 1014.0
20260905045513 79 360 0.0 1.0 0.00 0.00 0.00 89 1013.9
20260905045019 79 360 0.0 1.0 0.00 0.00 0.00 89 1013.9
20260905044509 79 360 0.0 2.0 0.00 0.00 0.00 89 1014.0
20260905044004 79 360 0.0 2.0 0.00 0.00 0.00 89 1014.0
20260905043504 79 360 0.0 1.0 0.00 0.00 0.00 89 1014.1
20260905043101 80 121 0.0 1.0 0.00 0.00 0.00 89 1014.1
20260905042511 80 118 0.0 2.0 0.00 0.00 0.00 89 1014.2
20260905042018 80 126 0.0 3.0 0.00 0.00 0.00 89 1014.3
20260905041532 80 169 0.0 3.0 0.00 0.00 0.00 89 1014.3
20260905041009 80 360 0.0 3.0 0.00 0.00 0.00 88 1014.2
20260905040511 80 360 0.0 1.0 0.00 0.00 0.00 88 1014.3
20260905040045 80 360 0.0 1.0 0.00 0.00 0.00 88 1014.3
20260905035513 80 360 0.0 1.0 0.00 0.00 0.00 88 1014.3
20260905035013 80 360 0.0 0.0 0.00 0.00 0.00 87 1014.4
20260905034534 80 360 0.0 0.0 0.00 0.00 0.00 88 1014.4
20260905034016 80 360 0.0 0.0 0.00 0.00 0.00 88 1014.4
20260905033515 80 360 0.0 0.0 0.00 0.00 0.00 88 1014.5
20260905033005 81 113 0.0 0.0 0.00 0.00 0.00 87 1014.4
20260905032503 81 360 0.0 0.0 0.00 0.00 0.00 87 1014.5
20260905032007 81 360 0.0 0.0 0.00 0.00 0.00 88 1014.6
20260905031513 81 60 0.0 1.0 0.00 0.00 0.00 88 1014.6
20260905031007 81 60 0.0 1.0 0.00 0.00 0.00 88 1014.5
20260905030511 81 360 0.0 0.0 0.00 0.00 0.00 88 1014.5
20260905030018 81 61 0.0 0.0 0.00 0.00 0.00 88 1014.5
20260905025514 81 64 0.0 0.0 0.00 0.00 0.00 87 1014.5
20260905025012 81 65 0.0 0.0 0.00 0.00 0.00 87 1014.4
20260905024519 81 65 0.0 1.0 0.00 0.00 0.00 87 1014.4
20260905024020 81 69 0.0 2.0 0.00 0.00 0.00 87 1014.3
20260905023514 81 360 0.0 2.0 0.00 0.00 0.00 87 1014.2
20260905023038 81 360 0.0 1.0 0.00 0.00 0.00 86 1014.1
20260905022521 81 360 0.0 1.0 0.00 0.00 0.00 86 1014.2
20260905022015 82 360 0.0 2.0 0.00 0.00 0.00 86 1014.1
20260905021507 82 360 0.0 2.0 0.00 0.00 0.00 86 1014.0
20260905021003 82 360 0.0 2.0 0.00 0.00 0.00 86 1014.0
20260905020519 82 360 0.0 3.0 0.00 0.00 0.00 86 1013.9
20260905020014 82 360 0.0 3.0 0.00 0.00 0.00 85 1013.9
20260905015508 82 360 0.0 2.0 0.00 0.00 0.00 85 1013.9
20260905015013 82 360 0.0 2.0 0.00 0.00 0.00 85 1013.8
20260905014519 82 360 0.0 1.0 0.00 0.00 0.00 84 1013.7
20260905014013 82 55 0.0 2.0 0.00 0.00 0.00 84 1013.7
20260905013517 82 360 0.0 2.0 0.00 0.00 0.00 84 1013.6
20260905013033 83 360 0.0 1.0 0.00 0.00 0.00 84 1013.5
20260905012512 83 360 0.0 1.0 0.00 0.00 0.00 83 1013.4
20260905012018 83 360 0.0 3.0 0.00 0.00 0.00 83 1013.2
20260905011528 83 360 0.0 3.0 0.00 0.00 0.00 83 1013.2
20260905011019 84 360 0.0 2.0 0.00 0.00 0.00 82 1013.1
20260905010516 84 360 0.0 0.0 0.00 0.00 0.00 82 1013.2
20260905010032 84 360 0.0 0.0 0.00 0.00 0.00 82 1013.2
20260905005507 84 360 0.0 0.0 0.00 0.00 0.00 82 1013.2
20260905005008 84 90 0.0 0.0 0.00 0.00 0.00 82 1013.3
20260905004534 85 93 0.0 0.0 0.00 0.00 0.00 82 1013.3
20260905004011 85 100 0.0 0.0 0.00 0.00 0.00 82 1013.3
20260905003519 85 107 0.0 0.0 0.00 0.00 0.00 82 1013.3
20260905002520 0 0.0 0.0 0.00 0.00 0.00 1013.3
20260905002018 0 0.0 0.0 0.00 0.00 0.00 1013.3
20260905001018 0 0.0 0.0 0.00 0.00 0.00 1013.3
20260905000518 0 0.0 0.0 0.00 0.00 0.00 1013.3
20260905000038 0 0.0 0.0 0.00 0.00 0.00 1013.3
20260904235518 0 0.0 0.0 0.00 0.00 0.00 1013.3
20260904235018 0 0.0 0.0 0.00 0.00 0.00 1013.3
20260904234543 0 0.0 0.0 0.00 0.00 0.00 1013.2
20260904234028 0 0.0 0.0 0.00 0.00 0.00 1013.2
20260904233520 88 0.0 0.0 0.00 0.00 0.00 72 1013.2
20260904233036 88 0.0 4.0 0.00 0.00 0.00 72 1013.1
20260904232523 88 246 0.0 3.0 0.00 0.00 0.00 73 1013.1
20260904232020 88 129 1.0 3.0 0.00 0.00 0.00 74 1013.1
20260904231526 88 232 0.0 3.0 0.00 0.00 0.00 73 1013.1
20260904231012 87 200 1.0 3.0 0.00 0.00 0.00 73 1013.1
20260904230516 87 271 1.0 3.0 0.00 0.00 0.00 74 1013.1
20260904225522 87 266 0.0 2.0 0.00 0.00 0.00 74 1013.0
20260904225016 87 260 0.0 2.0 0.00 0.00 0.00 73 1013.0
20260904224016 88 232 0.0 2.0 0.00 0.00 0.00 72 1013.1
20260904223523 88 258 0.0 2.0 0.00 0.00 0.00 72 1013.0
20260904223032 88 212 0.0 2.0 0.00 0.00 0.00 71 1013.0
20260904222519 88 163 0.0 3.0 0.00 0.00 0.00 75 1013.0
20260904222011 87 196 0.0 3.0 0.00 0.00 0.00 79 1013.1
20260904221522 87 184 0.0 3.0 0.00 0.00 0.00 79 1013.0
20260904221016 86 215 0.0 3.0 0.00 0.00 0.00 81 1013.0
20260904220514 86 273 0.0 3.0 0.00 0.00 0.00 81 1013.0
20260904215503 85 223 0.0 3.0 0.00 0.00 0.00 84 1013.0
20260904215016 84 229 0.0 2.0 0.00 0.00 0.00 84 1013.1
20260904214539 83 213 0.0 2.0 0.00 0.00 0.00 85 1013.1
20260904214018 82 120 0.0 2.0 0.00 0.00 0.00 85 1013.1
20260904213507 82 99 0.0 3.0 0.00 0.00 0.00 85 1013.2
20260904213036 82 360 0.0 5.0 0.00 0.00 0.00 85 1013.2
20260904212509 83 107 1.0 5.0 0.00 0.00 0.00 83 1013.2
20260904212018 0 0.0 0.0 0.00 0.00 0.00 1013.4
20260904211538 0 0.0 0.0 0.00 0.00 0.00 1013.6
20260904211019 0 0.0 0.0 0.00 0.00 0.00 1013.6
20260904210520 0 0.0 0.0 0.00 0.00 0.00 1013.6
20260904205520 0 0.0 0.0 0.00 0.00 0.00 1013.7
20260904205020 0 0.0 0.0 0.00 0.00 0.00 1013.7
20260904204019 0 0.0 0.0 0.00 0.00 0.00 1013.6
20260904203519 0 0.0 0.0 0.00 0.00 0.00 1013.6
20260904202520 0 0.0 0.0 0.00 0.00 0.00 1013.6
20260904202020 0 0.0 0.0 0.00 0.00 0.00 1013.7
20260904201539 0 0.0 0.0 0.00 0.00 0.00 1013.8
20260904200520 0 0.0 0.0 0.00 0.00 0.00 1014.0
20260904195521 0 0.0 0.0 0.00 0.00 0.00 1014.2
20260904195020 0 0.0 0.0 0.00 0.00 0.00 1014.3
20260904194019 0 0.0 0.0 0.00 0.00 0.00 1014.5
20260904193526 0 0.0 0.0 0.00 0.00 0.00 1014.5
20260904193038 0 0.0 0.0 0.00 0.00 0.00 1014.5
20260904192518 0 0.0 0.0 0.00 0.00 0.00 1014.5
20260904192016 0 0.0 0.0 0.00 0.00 0.00 1014.7
20260904185519 0 0.0 0.0 0.00 0.00 0.00 1014.9
20260904185019 0 0.0 0.0 0.00 0.00 0.00 1015.1
20260904184022 0 0.0 0.0 0.00 0.00 0.00 1015.1
20260904183518 0 0.0 0.0 0.00 0.00 0.00 1015.3
20260904182516 0 0.0 0.0 0.00 0.00 0.00 1015.4
20260904182027 0 0.0 0.0 0.00 0.00 0.00 1015.4
20260904181021 0 0.0 0.0 0.00 0.00 0.00 1015.4
20260904180523 0 0.0 0.0 0.00 0.00 0.00 1015.4
20260904175519 0 0.0 0.0 0.00 0.00 0.00 1015.6
20260904175019 0 0.0 0.0 0.00 0.01 0.00 1015.7
20260904174020 0 0.0 0.0 0.00 0.01 0.00 1015.9
20260904173518 0 0.0 0.0 0.00 0.01 0.00 1015.8
20260904172518 0 0.0 0.0 0.00 0.01 0.00 1015.9
20260904171023 0 0.0 0.0 0.00 0.01 0.00 1016.1
20260904170519 0 0.0 0.0 0.00 0.01 0.00 1016.1
20260904165520 0 0.0 0.0 0.00 0.01 0.00 1016.2
20260904165021 0 0.0 0.0 0.00 0.01 0.00 1016.3
20260904164018 0 0.0 0.0 0.00 0.01 0.00 1016.5
20260904163519 0 0.0 0.0 0.00 0.01 0.00 1016.5
20260904162520 0 0.0 0.0 0.00 0.01 0.00 1016.7
20260904160524 0 0.0 0.0 0.00 0.01 0.00 1016.3
20260904155522 0 0.0 0.0 0.00 0.01 0.00 1016.2
20260904155019 84 0.0 0.0 0.00 0.01 0.00 1016.2
20260904154022 84 15 0.0 0.0 0.00 0.01 0.00 86 1016.2
20260904153520 84 15 0.0 0.0 0.00 0.01 0.00 86 1016.0
20260904153020 85 20 0.0 1.0 0.00 0.01 0.00 85 1016.0
20260904152523 85 76 0.0 1.0 0.00 0.01 0.00 87 1015.9
20260904152016 84 46 0.0 2.0 0.00 0.01 0.00 89 1016.0
20260904151528 83 29 0.0 0.0 0.00 0.01 0.00 1016.1
20260904151022 0 0.0 0.0 0.00 0.01 0.00 1016.0
20260904150521 0 0.0 0.0 0.00 0.01 0.00 1016.0
20260904145520 0 0.0 0.0 0.00 0.01 0.00 1016.0
20260904145021 0 0.0 0.0 0.00 0.01 0.00 1016.0
20260904144022 0 0.0 0.0 0.00 0.01 0.00 1016.1
20260904143517 0 0.0 0.0 0.00 0.01 0.00 1016.1
20260904142520 0 0.0 0.0 0.00 0.01 0.00 1015.9
20260904142020 0 0.0 0.0 0.00 0.01 0.00 1015.8
20260904141505 0 0.0 0.0 0.00 0.01 0.00 1015.8
20260904141003 0 0.0 0.0 0.00 0.01 0.00 1015.8
20260904140503 0 0.0 0.0 0.00 0.01 0.00 1015.8
20260904140005 0 0.0 0.0 0.00 0.01 0.00 1015.8
20260904135504 76 0.0 0.0 0.00 0.01 0.00 94 1015.8
20260904135004 76 0.0 2.0 0.00 0.01 0.00 94 1015.7
20260904134506 76 360 0.0 2.0 0.00 0.01 0.00 94 1015.7
20260904134005 76 360 0.0 2.0 0.00 0.01 0.00 94 1015.7
20260904133505 76 227 0.0 0.0 0.00 0.01 0.00 94 1015.6
20260904133010 75 227 0.0 0.0 0.00 0.01 0.00 94 1015.6
20260904132508 75 227 0.0 0.0 0.00 0.01 0.00 94 1015.5
20260904132009 75 227 0.0 0.0 0.00 0.01 0.00 93 1015.5
20260904131507 75 227 0.0 0.0 0.00 0.01 0.00 94 1015.4
20260904131003 75 227 0.0 0.0 0.00 0.01 0.00 93 1015.5
20260904130506 74 226 0.0 0.0 0.00 0.01 0.00 94 1015.5
20260904130004 74 226 0.0 0.0 0.00 0.01 0.00 93 1015.4
20260904125504 74 226 0.0 0.0 0.00 0.01 0.00 93 1015.4
20260904125008 74 226 0.0 0.0 0.00 0.01 0.00 93 1015.4
20260904124503 74 226 0.0 0.0 0.00 0.01 0.00 93 1015.3
20260904124003 74 226 0.0 0.0 0.00 0.01 0.00 93 1015.1
20260904123506 74 226 0.0 0.0 0.00 0.01 0.00 93 1015.1
20260904123009 74 226 0.0 0.0 0.00 0.01 0.00 93 1015.2
20260904122508 74 226 0.0 0.0 0.00 0.01 0.00 93 1015.1
20260904122006 74 226 0.0 0.0 0.00 0.01 0.00 93 1015.1
20260904121508 74 226 0.0 0.0 0.00 0.01 0.00 93 1014.9
20260904121007 74 226 0.0 0.0 0.00 0.01 0.00 93 1014.9
20260904120507 74 226 0.0 0.0 0.00 0.01 0.00 93 1014.9
20260904120015 74 226 0.0 0.0 0.00 0.01 0.00 93 1014.7
20260904115506 74 226 0.0 0.0 0.00 0.01 0.00 93 1014.8
20260904115004 74 226 0.0 0.0 0.00 0.01 0.00 93 1014.8
20260904114511 74 226 0.0 0.0 0.00 0.01 0.00 93 1014.7
20260904114005 74 226 0.0 0.0 0.00 0.01 0.00 93 1014.6
20260904113508 74 226 0.0 0.0 0.00 0.01 0.00 93 1014.7
20260904113022 74 226 0.0 0.0 0.00 0.01 0.00 93 1014.6
20260904112506 74 226 0.0 0.0 0.00 0.01 0.00 93 1014.6
20260904112009 74 226 0.0 0.0 0.00 0.01 0.00 93 1014.6
20260904111513 74 226 0.0 0.0 0.00 0.01 0.00 93 1014.6
20260904111009 74 226 0.0 0.0 0.00 0.01 0.00 93 1014.7
20260904110509 74 226 0.0 0.0 0.00 0.01 0.00 93 1014.7
20260904110012 74 226 0.0 0.0 0.00 0.01 0.00 93 1014.7
20260904105510 74 226 0.0 0.0 0.00 0.02 0.00 93 1014.6
20260904105008 74 226 0.0 0.0 0.00 0.02 0.00 93 1014.6
20260904104516 74 226 0.0 0.0 0.00 0.02 0.00 93 1014.6
20260904104012 74 226 0.0 0.0 0.00 0.02 0.00 93 1014.6
20260904103511 74 226 0.0 0.0 0.00 0.02 0.00 93 1014.6
20260904103014 74 226 0.0 0.0 0.00 0.02 0.00 93 1014.5
20260904102505 74 226 0.0 0.0 0.00 0.02 0.00 93 1014.4
20260904102009 74 226 0.0 0.0 0.00 0.02 0.00 93 1014.4
20260904101511 74 226 0.0 0.0 0.00 0.02 0.00 92 1014.4
20260904101007 74 231 0.0 0.0 0.00 0.02 0.00 92 1014.4
20260904100509 74 231 0.0 0.0 0.00 0.02 0.00 92 1014.4
20260904100014 74 231 0.0 0.0 0.00 0.02 0.00 92 1014.4
20260904095510 74 231 0.0 0.0 0.00 0.02 0.00 92 1014.4
20260904095010 74 231 0.0 0.0 0.00 0.02 0.00 92 1014.4
20260904094531 74 231 0.0 0.0 0.00 0.02 0.00 92 1014.4
20260904094011 74 232 0.0 0.0 0.00 0.02 0.00 92 1014.4
20260904093511 74 231 0.0 0.0 0.00 0.02 0.00 92 1014.3
20260904093019 74 231 0.0 0.0 0.00 0.02 0.00 92 1014.3
20260904092512 74 230 0.0 0.0 0.00 0.02 0.00 92 1014.3
20260904092015 74 230 0.0 0.0 0.00 0.02 0.00 92 1014.4
20260904091532 74 230 0.0 0.0 0.00 0.02 0.00 92 1014.3
20260904091016 75 230 0.0 0.0 0.00 0.02 0.00 92 1014.4
20260904090506 75 231 0.0 0.0 0.00 0.02 0.00 92 1014.3
20260904090012 75 232 0.0 0.0 0.00 0.02 0.00 92 1014.4
20260904085515 75 232 0.0 0.0 0.00 0.02 0.00 92 1014.4
20260904085011 75 231 0.0 0.0 0.00 0.02 0.00 92 1014.3
20260904084520 75 231 0.0 0.0 0.00 0.02 0.00 92 1014.4
20260904084012 75 231 0.0 0.0 0.00 0.02 0.00 92 1014.4
20260904083513 75 231 0.0 0.0 0.00 0.02 0.00 92 1014.3
20260904083023 75 231 0.0 0.0 0.00 0.02 0.00 92 1014.3
20260904082512 75 0.0 0.0 0.00 0.02 0.00 92 1014.4
20260904082013 75 0.0 0.0 0.00 0.02 0.00 92 1014.4
20260904081519 75 230 0.0 0.0 0.00 0.02 0.00 92 1014.3
20260904081013 75 230 0.0 0.0 0.00 0.02 0.00 92 1014.3
20260904080516 75 230 0.0 0.0 0.00 0.02 0.00 92 1014.2
20260904080025 75 230 0.0 0.0 0.00 0.02 0.00 92 1014.3
20260904075517 75 230 0.0 0.0 0.00 0.02 0.00 92 1014.3
20260904075014 75 230 0.0 0.0 0.00 0.02 0.00 92 1014.3
20260904074523 75 230 0.0 0.0 0.00 0.02 0.00 92 1014.3
20260904074014 76 230 0.0 0.0 0.00 0.02 0.00 92 1014.2
20260904073514 76 230 0.0 0.0 0.00 0.02 0.00 92 1014.2
20260904073024 76 230 0.0 0.0 0.00 0.02 0.00 92 1014.2
20260904072515 76 231 0.0 0.0 0.00 0.02 0.00 92 1014.1
20260904072014 76 232 0.0 0.0 0.00 0.02 0.00 92 1014.2
20260904071526 76 237 0.0 0.0 0.00 0.02 0.00 92 1014.1
20260904071015 76 238 0.0 0.0 0.00 0.02 0.00 92 1014.2
20260904070517 76 236 0.0 0.0 0.00 0.02 0.00 92 1014.1
20260904070024 76 235 0.0 0.0 0.00 0.02 0.00 92 1014.2
20260904065518 76 235 0.0 0.0 0.00 0.02 0.00 92 1014.2